Location: ???????
(54.6339°N, 39.4245°E)
Time: 07:09:37
(UTC+00:00)

NOSS 2-2 (C) - Pass Details

Date: 19 May 2025
Orbit: 386 x 1711 km, 63.3° (Epoch: 15 June)

Event Time Altitude Azimuth Distance (km) Brightness Sun altitude
Rises 22:18:50 0° 309° (NW) 2,463 7.0 -14.3°
Reaches altitude 10° 22:20:41 10° 310° (NW) 1,681 6.1 -14.2°
Maximum altitude 22:24:22 88° 225° (SW) 590 3.4 -14.1°
Drops below altitude 10° 22:29:22 10° 133° (SE) 2,268 6.2 -13.9°
Sets 22:32:12 0° 133° (SE) 3,421 7.1 -13.8°
